This demonstration page uses our WeatherBlox Daily Observations layout. Learn more.

Left ArrowRight Arrow

38.83388, -104.82136

Hourly Observations for January 31, 2021

Temp ( °F °C ) Dew Point ( °F °C ) Humidity (%) Winds ( mph kmh ) Pressure ( in mb ) Visibility ( mi km ) Precip ( " mm )
12:58 am 00:58 Clear 34 1.1 10 -12 37 37 SSW 6 9 30.14 1021 10 16 0.00 0.00
1:58 am 01:58 Clear 29 -1.5 10 -12 45 45 WNW 7 11 30.23 1024 10 16 0.00 0.00
2:58 am 02:58 Clear 30 -0.9 12 -11.2 46 46 SSW 6 9 29.93 1014 10 16 0.00 0.00
3:58 am 03:58 Clear 28 -2 11 -11.6 48 48 Calm 29.98 1015 10 16 0.00 0.00
4:58 am 04:58 Clear 28 -2.2 11 -11.7 49 49 SSW 3 6 29.99 1016 10 16 0.00 0.00
5:58 am 05:58 Clear 28 -2.4 10 -12.5 46 46 Calm 30.05 1018 10 16 0.00 0.00
6:58 am 06:58 Clear 28 -2.4 6 -14.2 40 40 WNW 5 7 30.07 1018 10 16 0.00 0.00
7:58 am 07:58 Sunny 31 -0.6 10 -12.5 41 41 Calm 30.09 1019 10 16 0.00 0.00
8:58 am 08:58 Sunny 33 0.3 11 -11.4 41 41 SE 5 7 30.14 1021 10 16 0.00 0.00
9:58 am 09:58 Sunny 37 2.8 16 -9.1 42 42 ESE 8 13 30.11 1020 10 16 0.00 0.00
10:58 am 10:58 Sunny 36 2.3 16 -8.8 44 44 SE 14 22 30.11 1020 10 16 0.00 0.00
11:58 am 11:58 Sunny 38 3.1 15 -9.6 39 39 SSE 22 35 30.06 1018 10 16 0.00 0.00
12:58 pm 12:58 Sunny 41 4.9 15 -9.2 36 36 SE 13 20 30.04 1017 10 16 0.00 0.00
1:58 pm 13:58 Sunny 42 5.5 14 -9.9 32 32 SE 10 17 30.04 1017 10 16 0.00 0.00
2:58 pm 14:58 Sunny 41 4.9 13 -10.4 32 32 SE 10 17 30.06 1018 10 16 0.00 0.00
3:58 pm 15:58 Sunny 39 3.9 11 -11.5 32 32 SSE 14 22 30.07 1018 10 16 0.00 0.00
4:58 pm 16:58 Sunny 37 2.6 11 -11.5 35 35 S 10 17 30.11 1020 10 16 0.00 0.00
5:58 pm 17:58 Clear 34 1.3 11 -11.4 39 39 SSW 7 11 30.13 1020 10 16 0.00 0.00
6:58 pm 18:58 Clear 33 0.4 13 -10.3 45 45 S 5 7 30.14 1021 10 16 0.00 0.00
7:58 pm 19:58 Clear 30 -1.2 13 -10.6 49 49 Calm 30.13 1020 10 16 0.00 0.00
9:58 pm 21:58 Clear 28 -2.2 13 -10.7 53 53 Calm 30.12 1020 10 16 0.00 0.00
10:58 pm 22:58 Clear 29 -1.9 11 -11.7 48 48 Calm 30.10 1019 10 16 0.00 0.00
11:58 pm 23:58 Clear 30 -1.2 9 -12.9 41 41 NNW 3 6 30.07 1018 10 16 0.00 0.00

Powered by AerisWeather